カタログに戻る

STARLINK-35216

運用中通信VLEO
NORAD 65516·PAYLOAD·🇺🇸 United States

打ち上げ Sep 5, 2025 から Cape Canaveral Space Force Station

Loading…

次のパス (今後24時間)

TLE

最新Source: CelesTrak SupGP

元期: Sep 15, 2026, 03:22 UTC

1 65516C 25198AA  26258.14076389  .00006726  00000+0  19873-3 0  2588
2 65516  53.1574 108.6921 0001263  87.0140  92.2635 15.34384185    19

AllMySatでSTARLINK-35216をリアルタイム追跡

Download on the App Store